GPS BIII-3 (PRN 23)

Last updated on June 19, 2021, 11:37 a.m. UTC

1 45854U 20041A   21168.43244591  .00000004  00000-0  00000-0 0  9997
2 45854  55.2626 100.8682 0011247 159.4516 200.5868  2.00565872  7411
UTC
Height (km)
Latitude
Longitude
Inclination
Orbital Period
UTC large
Height (km)
Speed (km/s)
/
Latitude / Longitude
Inclination (degrees)
Orbital Period (minutes)
Azimuth
Elevation
Range (km)
Doppler Factor
iOS Compass Heading
iOS Angle

Next 30 passes for location: Hong Kong

Rise time Rise Azimuth (degrees) Set time Set Azimuth (degrees) Duration Max altitude (degrees)

No matching passes for this satellites